Вернуться в каталог

CZ-3C DEB

LostGTO
NORAD 40869·DEBRIS·🇨🇳 China

Запущен Feb 24, 2012 с Xichang Satellite Launch Center

Loading…

TLE

УстаревшееSource: Space-Track

Эпоха: Mar 25, 2025, 02:59 UTC

1 40869U 12008AK  25084.12490443  .00001585  00000-0  63035-1 0  9991
2 40869  18.4629 332.1867 7262175  75.3844 348.9966  2.08076827 89912

Отслеживайте CZ-3C DEB в реальном времени с AllMySat

Download on the App Store